CYHZ

Halifax Stanfield International Airport

Airport
ICAO code
CYHZ
IATA Code
YHZ
Summary
ICAO Region
NAM
ICAO Territory
Location

Halifax, Nova Scotia,

Serving
Halifax
Elevation
477 ft
Coordinates
44° 52' 50" N , 63° 30' 50" W
KCC
Metar
Observation
CYHZ 271300Z 27018G24KT 15SM BKN024 M02/M06 A2981 RMK SC7 SLP101
Station
Halifax International Airport
Date/Time
2023-01-27 14:00:00
Wind direction
270°
Wind speed
18 kts
Lowest cloud amount
broken clouds
Temperature
-2°C
Dew point
-6°C
Humidity
74%
Weather condition
n/a

Description

Officially named Halifax International Airport, serves Halifax and environs, Nova Scotia.

Climatology

Humid Continental climate (Köppen climate classification Dfb) - Variable weather patterns and a large seasonal temperature variance. Summers are often warm and humid with frequent thunderstorms and winters can be very cold with frequent snowfall and persistent snow cover.

Runways

Designator Length Width Surface Rops
14/32 2347 61 ASP Yes/Yes
5/23 2682 61 PEM Yes/Yes

SKYbrary Partners:

Safety knowledge contributed by: